Location: Az?znagar
(16.8373°N, 80.5091°E)
Time: 15:41:09
(UTC+00:00)

deb Chang Zheng 4 - Pass Details

Date: 28 September 2022
Orbit: 879 x 975 km, 98.9° (Epoch: 30 November)

Event Time Altitude Azimuth Distance (km) Brightness Sun altitude
Exits shadow 15:30:58 13° 242° (WSW) 2,396 ? -44.0°
Maximum altitude 15:32:38 14° 261° (W) 2,287 ? -44.4°
Drops below altitude 10° 15:35:34 10° 292° (WNW) 2,569 ? -45.0°
Sets 15:39:13 0° 317° (NW) 3,494 ? -45.9°
